Weather History for KHJO - April, 2014

Change the Weather History Date:

Tuesday, April 15, 2014

  Actual Average Record
Temperature  
Mean Temperature 71 °F 60 °F  
Max Temperature 89 °F 75 °F 89 °F (2014)
Min Temperature 53 °F 46 °F 32 °F (2009)
Degree Days  
Heating Degree Days 0    
Month to date heating degree days 61  
Since 1 July heating degree days 2013  
Cooling Degree Days 6    
Month to date cooling degree days 43  
Year to date cooling degree days 43  
Growing Degree Days 21 (Base 50)    
Moisture  
Dew Point 41 °F    
Average Humidity 47    
Maximum Humidity 83    
Minimum Humidity 11    
Precipitation  
Precipitation 0.00 in 0.03 in 0.54 in (1988)
Month to date precipitation T 0.38  
Year to date precipitation 2.23 5.78  
Since 1 July precipitation 2.62  
Snow  
Snow 0.00 in - - ()
Month to date snowfall 0.0  
Since 1 July snowfall 0.0  
Snow Depth 0.00 in    
Sea Level Pressure  
Sea Level Pressure 29.91 in    
Wind  
Wind Speed 7 mph (NNW)    
Max Wind Speed 16 mph    
Max Gust Speed 20 mph    
Visibility 9 miles    
Events      
T = Trace of Precipitation, MM = Missing Value Source: NWS Daily Summary

Daily Weather History Graph

Daily Weather History Graph

Search for Another Location

Airport or City:

Trip Planner

Search our weather history database for the weather conditions in past years. The results will help you decide how hot, cold, wet, or windy it might be!

Date:

Astronomy

Apr. 15, 2014 Rise Set
Actual Time 6:24 AM PDT 7:32 PM PDT
Civil Twilight 5:58 AM PDT 7:59 PM PDT
Nautical Twilight 5:26 AM PDT 8:30 PM PDT
Astronomical Twilight 4:54 AM PDT 9:03 PM PDT
Moon 8:17 PM PDT (4/15) 6:36 AM PDT (4/15)
Length of Visible Light 14h 00m
Length of Day
13h 07m
Full, 100% of the Moon is Illuminated
Apr 15
Full
Apr 22
Last Quarter
Apr 28
New
May 6
First Quarter
May 14
Full

Hourly Weather History & Observations

Time (PDT) Temp. Dew Point Humidity Pressure Visibility Wind Dir Wind Speed Gust Speed Precip Events Conditions
12:53 AM 66.9 °F 46.0 °F 47% 30.00 in 10.0 mi NW 9.2 mph - N/A   Clear
1:53 AM 66.0 °F 46.9 °F 50% 29.99 in 10.0 mi NW 8.1 mph - N/A   Clear
2:53 AM 64.9 °F 46.9 °F 52% 29.98 in 10.0 mi NW 8.1 mph - N/A   Clear
3:53 AM 63.0 °F 48.0 °F 58% 29.98 in 10.0 mi North 6.9 mph - N/A   Clear
4:53 AM 57.0 °F 48.0 °F 72% 29.97 in 10.0 mi NNE 3.5 mph - N/A   Clear
5:53 AM 54.0 °F 48.0 °F 80% 29.96 in 9.0 mi SSW 4.6 mph - N/A   Clear
6:53 AM 54.0 °F 48.0 °F 80% 29.97 in 7.0 mi Calm Calm - N/A   Clear
7:53 AM 63.0 °F 48.9 °F 60% 29.98 in 8.0 mi NW 6.9 mph - N/A   Clear
8:53 AM 66.0 °F 48.9 °F 54% 29.99 in 9.0 mi NNE 4.6 mph - N/A   Clear
9:53 AM 71.1 °F 50.0 °F 47% 29.99 in 8.0 mi North 5.8 mph - N/A   Clear
10:53 AM 75.0 °F 50.0 °F 41% 29.98 in 5.0 mi Variable 5.8 mph - N/A   Haze
11:53 AM 80.1 °F 45.0 °F 29% 29.96 in 8.0 mi NE 4.6 mph - N/A   Clear
12:53 PM 84.0 °F 43.0 °F 24% 29.92 in 10.0 mi Variable 3.5 mph - N/A   Clear
1:53 PM 84.9 °F 41.0 °F 21% 29.89 in 10.0 mi Variable 3.5 mph - N/A   Clear
2:53 PM 87.1 °F 36.0 °F 16% 29.87 in 10.0 mi NW 6.9 mph - N/A   Clear
3:53 PM 88.0 °F 34.0 °F 15% 29.85 in 10.0 mi NW 9.2 mph - N/A   Clear
4:53 PM 88.0 °F 30.9 °F 13% 29.83 in 10.0 mi NW 13.8 mph - N/A   Clear
5:53 PM 87.1 °F 27.0 °F 11% 29.82 in 10.0 mi NNW 12.7 mph - N/A   Clear
6:53 PM 82.9 °F 25.0 °F 12% 29.81 in 10.0 mi NW 12.7 mph - N/A   Clear
7:53 PM 78.1 °F 28.0 °F 16% 29.81 in 10.0 mi NNW 8.1 mph - N/A   Clear
8:53 PM 73.9 °F 33.1 °F 22% 29.83 in 10.0 mi NNW 9.2 mph - N/A   Clear
9:53 PM 72.0 °F 39.0 °F 30% 29.84 in 10.0 mi NW 9.2 mph - N/A   Clear
10:53 PM 70.0 °F 39.9 °F 33% 29.84 in 10.0 mi NW 12.7 mph - N/A   Clear
11:53 PM 66.9 °F 44.1 °F 44% 29.85 in 10.0 mi WNW 9.2 mph - N/A   Clear